| time (UTC) | temp C | wind direction | speed KPH | gust KPH | rain 1hr cm | rain 24hr cm | rain mn cm | humidity % | barometer mb |
| 20260507020535 | 10 | 90 | 12.9 | 14.5 | 0.00 | 0.51 | 0.51 | 35 | 1017.0 |
| 20260507015534 | 9 | 86 | 12.9 | 14.5 | 0.00 | 0.51 | 0.51 | 34 | 1016.4 |
| 20260507014515 | 8 | 83 | 12.9 | 14.5 | 0.00 | 0.51 | 0.51 | 34 | 1015.7 |
| 20260507013515 | 8 | 80 | 12.9 | 14.5 | 0.00 | 0.51 | 0.51 | 33 | 1015.1 |
| 20260507012515 | 7 | 76 | 12.9 | 14.5 | 0.00 | 0.51 | 0.51 | 33 | 1014.5 |
| 20260507011515 | 7 | 73 | 12.9 | 16.1 | 0.00 | 0.51 | 0.51 | 32 | 1013.9 |
| 20260507010515 | 7 | 70 | 12.9 | 16.1 | 0.00 | 0.51 | 0.51 | 32 | 1013.3 |
| 20260507005515 | 6 | 67 | 12.9 | 16.1 | 0.00 | 0.51 | 0.51 | 31 | 1012.7 |
| 20260507004554 | 6 | 64 | 12.9 | 16.1 | 0.00 | 0.51 | 0.51 | 31 | 1012.1 |
| 20260507003515 | 5 | 61 | 12.9 | 16.1 | 0.00 | 0.51 | 0.51 | 30 | 1011.6 |
| 20260507002515 | 5 | 58 | 12.9 | 16.1 | 0.00 | 0.51 | 0.51 | 30 | 1011.0 |
| 20260507001515 | 5 | 55 | 12.9 | 16.1 | 0.00 | 0.51 | 0.51 | 29 | 1010.5 |
| 20260507000515 | 4 | 52 | 14.5 | 16.1 | 0.00 | 0.51 | 0.51 | 29 | 1009.9 |
| 20260506235515 | 3 | 50 | 14.5 | 16.1 | 0.00 | 0.51 | 0.51 | 28 | 1009.4 |
| 20260506234515 | 3 | 47 | 14.5 | 16.1 | 0.00 | 0.51 | 0.51 | 28 | 1008.9 |
| 20260506233532 | 3 | 44 | 14.5 | 17.7 | 0.00 | 0.51 | 0.51 | 27 | 1008.4 |
| 20260506232515 | 2 | 42 | 14.5 | 17.7 | 0.00 | 0.51 | 0.51 | 27 | 1007.9 |
| 20260506231515 | 2 | 39 | 14.5 | 17.7 | 0.00 | 0.51 | 0.51 | 27 | 1007.4 |
| 20260506230535 | 2 | 37 | 14.5 | 17.7 | 0.00 | 0.51 | 0.51 | 26 | 1007.0 |
| 20260506225554 | 1 | 35 | 14.5 | 17.7 | 0.00 | 0.51 | 0.51 | 26 | 1006.5 |
| 20260506224515 | 1 | 32 | 14.5 | 17.7 | 0.00 | 0.51 | 0.51 | 25 | 1006.1 |
| 20260506223515 | 1 | 30 | 14.5 | 17.7 | 0.00 | 0.51 | 0.51 | 25 | 1005.7 |
| 20260506222515 | 1 | 28 | 14.5 | 17.7 | 0.00 | 0.51 | 0.51 | 25 | 1005.3 |
| 20260506221515 | 0 | 26 | 14.5 | 17.7 | 0.00 | 0.51 | 0.51 | 24 | 1004.9 |
| 20260506220515 | 0 | 24 | 14.5 | 17.7 | 0.00 | 0.51 | 0.51 | 24 | 1004.5 |
| 20260506215515 | 0 | 22 | 14.5 | 17.7 | 0.00 | 0.51 | 0.51 | 24 | 1004.1 |
| 20260506214515 | 0 | 20 | 14.5 | 17.7 | 0.00 | 0.51 | 0.51 | 23 | 1003.8 |
| 20260506213515 | 0 | 18 | 14.5 | 17.7 | 0.00 | 0.51 | 0.51 | 23 | 1003.4 |
| 20260506212515 | 0 | 17 | 16.1 | 17.7 | 0.00 | 0.51 | 0.51 | 23 | 1003.1 |
| 20260506211534 | 0 | 15 | 16.1 | 19.3 | 0.00 | 0.51 | 0.51 | 23 | 1002.8 |
| 20260506210515 | 0 | 14 | 16.1 | 19.3 | 0.00 | 0.51 | 0.51 | 22 | 1002.5 |
| 20260506205515 | -1 | 12 | 16.1 | 19.3 | 0.00 | 0.51 | 0.51 | 22 | 1002.2 |
| 20260506204515 | -1 | 11 | 16.1 | 19.3 | 0.00 | 0.51 | 0.51 | 22 | 1002.0 |
| 20260506203515 | -1 | 9 | 16.1 | 19.3 | 0.00 | 0.51 | 0.51 | 22 | 1001.7 |
| 20260506202515 | -1 | 8 | 16.1 | 19.3 | 0.00 | 0.51 | 0.51 | 21 | 1001.5 |
| 20260506201515 | -1 | 7 | 16.1 | 19.3 | 0.00 | 0.51 | 0.51 | 21 | 1001.3 |
| 20260506200515 | -1 | 6 | 16.1 | 19.3 | 0.00 | 0.51 | 0.51 | 21 | 1001.1 |
| 20260506195515 | -1 | 5 | 16.1 | 19.3 | 0.00 | 0.51 | 0.51 | 21 | 1000.9 |
| 20260506194534 | -1 | 4 | 16.1 | 19.3 | 0.00 | 0.51 | 0.51 | 21 | 1000.7 |
| 20260506193515 | -1 | 3 | 16.1 | 19.3 | 0.00 | 0.51 | 0.51 | 21 | 1000.6 |
| 20260506192515 | -1 | 3 | 16.1 | 19.3 | 0.00 | 0.51 | 0.51 | 20 | 1000.4 |
| 20260506190515 | 0 | 1 | 16.1 | 19.3 | 0.00 | 0.51 | 0.51 | 20 | 1000.2 |
| 20260506185515 | 0 | 1 | 16.1 | 19.3 | 0.00 | 0.51 | 0.51 | 20 | 1000.1 |
| 20260506184515 | 0 | 1 | 16.1 | 19.3 | 0.00 | 0.51 | 0.51 | 20 | 1000.1 |
| 20260506183515 | 0 | 0 | 16.1 | 19.3 | 0.00 | 0.51 | 0.51 | 20 | 1000.0 |
| 20260506182515 | 0 | 0 | 16.1 | 19.3 | 0.00 | 0.51 | 0.51 | 20 | 1000.0 |
| 20260506181554 | 0 | 0 | 16.1 | 19.3 | 0.00 | 0.51 | 0.51 | 20 | 999.9 |
| 20260506180515 | 0 | 0 | 16.1 | 19.3 | 0.00 | 0.51 | 0.51 | 20 | 999.9 |
| 20260506175534 | 0 | 0 | 16.1 | 19.3 | 0.00 | 0.51 | 0.51 | 20 | 1000.0 |
| 20260506174515 | 1 | 0 | 16.1 | 19.3 | 0.00 | 0.51 | 0.51 | 20 | 1000.0 |
| 20260506173535 | 1 | 0 | 16.1 | 19.3 | 0.00 | 0.51 | 0.51 | 20 | 1000.0 |
| 20260506172515 | 1 | 1 | 16.1 | 19.3 | 0.00 | 0.51 | 0.51 | 20 | 1000.1 |
| 20260506171515 | 1 | 1 | 16.1 | 19.3 | 0.00 | 0.51 | 0.51 | 20 | 1000.2 |
| 20260506170515 | 2 | 2 | 16.1 | 19.3 | 0.00 | 0.51 | 0.51 | 20 | 1000.2 |
| 20260506165515 | 2 | 2 | 16.1 | 19.3 | 0.00 | 0.51 | 0.51 | 20 | 1000.4 |
| 20260506164515 | 2 | 3 | 16.1 | 19.3 | 0.00 | 0.51 | 0.51 | 20 | 1000.5 |
| 20260506163515 | 3 | 4 | 16.1 | 19.3 | 0.00 | 0.51 | 0.51 | 21 | 1000.6 |
| 20260506162515 | 3 | 4 | 16.1 | 19.3 | 0.00 | 0.51 | 0.51 | 21 | 1000.8 |
| 20260506161515 | 3 | 5 | 16.1 | 19.3 | 0.00 | 0.51 | 0.51 | 21 | 1000.9 |
| 20260506160515 | 4 | 6 | 16.1 | 19.3 | 0.00 | 0.51 | 0.51 | 21 | 1001.1 |
| 20260506155515 | 5 | 7 | 16.1 | 19.3 | 0.00 | 0.51 | 0.51 | 21 | 1001.3 |
| 20260506154515 | 5 | 8 | 16.1 | 19.3 | 0.00 | 0.51 | 0.51 | 21 | 1001.6 |
| 20260506153515 | 5 | 10 | 16.1 | 19.3 | 0.00 | 0.51 | 0.51 | 22 | 1001.8 |
| 20260506152515 | 6 | 11 | 16.1 | 19.3 | 0.00 | 0.51 | 0.51 | 22 | 1002.0 |
| 20260506151515 | 6 | 12 | 16.1 | 19.3 | 0.00 | 0.51 | 0.51 | 22 | 1002.3 |
| 20260506150515 | 7 | 14 | 16.1 | 19.3 | 0.00 | 0.51 | 0.51 | 22 | 1002.6 |
| 20260506145516 | 7 | 15 | 16.1 | 17.7 | 0.00 | 0.51 | 0.51 | 23 | 1002.9 |
| 20260506144515 | 8 | 17 | 16.1 | 17.7 | 0.00 | 0.51 | 0.51 | 23 | 1003.2 |
| 20260506143515 | 8 | 19 | 14.5 | 17.7 | 0.00 | 0.51 | 0.51 | 23 | 1003.5 |
| 20260506142515 | 8 | 21 | 14.5 | 17.7 | 0.00 | 0.51 | 0.51 | 23 | 1003.9 |
| 20260506141515 | 9 | 22 | 14.5 | 17.7 | 0.00 | 0.51 | 0.51 | 24 | 1004.2 |
| 20260506140515 | 10 | 24 | 14.5 | 17.7 | 0.00 | 0.51 | 0.51 | 24 | 1004.6 |
| 20260506135515 | 10 | 26 | 14.5 | 17.7 | 0.00 | 0.51 | 0.51 | 24 | 1005.0 |
| 20260506134515 | 11 | 28 | 14.5 | 17.7 | 0.00 | 0.51 | 0.51 | 25 | 1005.4 |
| 20260506133515 | 11 | 31 | 14.5 | 17.7 | 0.00 | 0.51 | 0.51 | 25 | 1005.8 |
| 20260506132534 | 12 | 33 | 14.5 | 17.7 | 0.00 | 0.51 | 0.51 | 25 | 1006.2 |
| 20260506131515 | 12 | 35 | 14.5 | 17.7 | 0.00 | 0.51 | 0.51 | 26 | 1006.6 |
| 20260506130515 | 12 | 37 | 14.5 | 17.7 | 0.00 | 0.51 | 0.51 | 26 | 1007.1 |
| 20260506125535 | 13 | 40 | 14.5 | 17.7 | 0.00 | 0.51 | 0.51 | 27 | 1007.5 |
| 20260506124515 | 13 | 42 | 14.5 | 17.7 | 0.00 | 0.51 | 0.51 | 27 | 1008.0 |
| 20260506123534 | 14 | 45 | 14.5 | 17.7 | 0.00 | 0.51 | 0.51 | 27 | 1008.5 |
| 20260506122516 | 15 | 48 | 14.5 | 16.1 | 0.00 | 0.51 | 0.51 | 28 | 1009.0 |
| 20260506122333 | 15 | 50 | 14.5 | 16.1 | 0.00 | 0.51 | 0.51 | 28 | 1009.5 |
| 20260506072732 | 21 | 151 | 9.7 | 11.3 | 0.10 | 0.51 | 0.51 | 45 | 1028.7 |